K5IDL Weather Reports


time (UTC)temp
C
wind
direction
speed
KPH
gust
KPH
rain 1hr
cm
rain 24hr
cm
rain mn
cm
humidity
%
barometer
mb
20260509043728 21 329 0.0 0.0 0.00 1.30 1.30 86 1010.4
20260509043720 21 7 0.0 1.6 0.00 1.30 1.30 86 1010.9
20260509043224 21 332 0.0 0.0 0.00 1.30 1.30 86 1010.7
20260509042720 21 259 0.0 1.6 0.00 1.30 1.30 86 1010.6
20260509042642 21 0.0 0.0 0.00 1.30 1.30 86 1010.9
20260509042216 21 319 0.0 0.0 0.00 1.30 1.30 87 1010.5
20260509041714 21 351 0.0 0.0 0.00 1.30 1.30 86 1010.3
20260509041706 21 290 0.0 1.6 0.00 1.30 1.30 87 1010.5
20260509041210 21 336 0.0 1.6 0.00 1.30 1.30 87 1010.2
20260509040709 21 335 1.6 1.6 0.00 1.30 1.30 86 1010.4
20260509040629 21 71 0.0 1.6 0.00 1.30 1.30 86 1010.7
20260509040205 21 93 1.6 1.6 0.00 1.30 1.30 85 1010.6
20260509035755 22 289 0.0 1.6 0.00 1.30 1.30 84 1010.5
20260509035702 22 268 1.6 1.6 0.00 1.30 1.30 85 1010.5
20260509035159 22 59 0.0 0.0 0.00 1.30 1.30 84 1010.0
20260509034718 22 0.0 0.0 0.00 1.30 1.30 79 1011.0
20260509034656 22 337 0.0 0.0 0.00 1.30 1.30 81 1010.4
20260509034153 22 342 0.0 0.0 0.00 1.30 1.30 79 1010.9
20260509033650 22 350 0.0 0.0 0.00 1.30 1.30 79 1011.3
20260509033640 22 0.0 0.0 0.00 1.30 1.30 80 1012.0
20260509033147 22 349 0.0 0.0 0.00 1.30 1.30 80 1011.6
20260509032705 22 0.0 0.0 0.00 1.30 1.30 79 1011.8
20260509032645 22 353 0.0 0.0 0.00 1.30 1.30 79 1011.7
20260509032141 22 357 0.0 0.0 0.00 1.30 1.30 79 1011.4
20260509031639 22 1 0.0 0.0 0.00 1.30 1.30 79 1011.1
20260509031628 22 0.0 0.0 0.00 1.30 1.30 79 1011.2
20260509031136 22 351 0.0 0.0 0.00 1.30 1.30 79 1010.9
20260509030654 22 358 0.0 1.6 0.00 1.30 1.30 79 1011.3
20260509030635 22 358 0.0 0.0 0.00 1.30 1.30 78 1011.0
20260509030132 22 356 0.0 0.0 0.00 1.30 1.30 79 1011.1
20260509025719 22 0.0 0.0 0.00 1.30 1.30 79 1011.5
20260509025627 22 347 0.0 0.0 0.00 1.30 1.30 79 1011.2
20260509025123 22 355 0.0 0.0 0.00 1.30 1.30 79 1011.0
20260509024744 22 0.0 0.0 0.00 1.30 1.30 79 1011.2
20260509024619 22 357 0.0 0.0 0.00 1.30 1.30 79 1010.8
20260509024115 22 6 0.0 0.0 0.00 1.30 1.30 79 1010.9
20260509023706 22 0.0 0.0 0.00 1.30 1.30 79 1010.9
20260509023613 22 8 0.0 0.0 0.00 1.30 1.30 78 1010.7
20260509023110 22 349 0.0 0.0 0.00 1.30 1.30 79 1010.7
20260509022628 22 19 0.0 1.6 0.00 1.30 1.30 78 1010.4
20260509022606 22 30 0.0 0.0 0.00 1.30 1.30 79 1010.3
20260509022104 22 1 0.0 0.0 0.00 1.30 1.30 78 1010.0
20260509021714 22 0.0 0.0 0.00 1.30 1.30 78 1010.0
20260509021601 22 358 0.0 0.0 0.00 1.30 1.30 78 1009.7
20260509021058 22 5 0.0 0.0 0.00 1.30 1.30 77 1009.8
20260509020616 22 343 0.0 1.6 0.00 1.30 1.30 77 1010.3
20260509020557 22 347 0.0 0.0 0.00 1.30 1.30 77 1009.7
20260509020053 22 5 0.0 0.0 0.00 1.30 1.30 77 1009.9
20260509015825 22 343 0.0 1.6 0.00 1.30 1.30 77 1010.2
20260509015552 22 335 0.0 0.0 0.00 1.30 1.30 77 1009.9
20260509015049 22 349 0.0 0.0 0.00 1.30 1.30 76 1009.8
20260509014707 22 0.0 0.0 0.00 1.30 1.30 76 1010.0
20260509014545 22 343 0.0 0.0 0.00 1.30 1.30 76 1009.7
20260509014042 22 346 0.0 0.0 0.00 1.30 1.30 76 1009.7
20260509013733 22 13 0.0 1.6 0.00 1.30 1.30 75 1009.9
20260509013539 22 13 0.0 1.6 0.00 1.30 1.30 75 1009.6
20260509013034 22 348 1.6 1.6 0.00 1.30 1.30 75 1009.5
20260509012715 23 330 0.0 1.6 0.00 1.30 1.30 75 1010.0
20260509012531 22 351 0.0 0.0 0.00 1.30 1.30 75 1009.6
20260509012028 22 351 0.0 0.0 0.00 1.30 1.30 75 1009.8
20260509011721 23 338 0.0 1.6 0.00 1.30 1.30 74 1009.9
20260509011526 23 338 0.0 1.6 0.00 1.30 1.30 75 1009.8
20260509011023 23 1 0.0 1.6 0.00 1.30 1.30 74 1009.8
20260509010643 23 0.0 0.0 0.00 1.30 1.30 74 1010.0
20260509010521 23 358 0.0 0.0 0.00 1.30 1.30 74 1009.6
20260509010017 23 346 0.0 0.0 0.00 1.30 1.30 74 1009.9
20260509005708 23 0.0 0.0 0.00 1.30 1.30 74 1010.0
20260509005515 23 347 0.0 0.0 0.00 1.30 1.30 73 1009.7
20260509005015 23 345 0.0 0.0 0.00 1.30 1.30 73 1009.6
20260509004734 23 327 0.0 3.2 0.00 1.30 1.30 73 1009.7
20260509004512 23 334 1.6 1.6 0.00 1.30 1.30 73 1009.4
20260509004009 23 350 0.0 0.0 0.00 1.30 1.30 73 1009.5
20260509003657 23 290 0.0 3.2 0.00 1.30 1.30 72 1009.4
20260509003508 23 342 0.0 0.0 0.00 1.30 1.30 72 1009.0
20260509003004 23 327 0.0 1.6 0.00 1.30 1.30 72 1009.1
20260509002722 23 20 0.0 1.6 0.00 1.30 1.30 72 1009.5
20260509002503 23 60 0.0 0.0 0.00 1.30 1.30 72 1009.3
20260509001959 23 218 1.6 3.2 0.00 1.30 1.30 71 1009.0
20260509001645 23 344 0.0 1.6 0.00 1.30 1.30 71 1009.5
20260509001455 23 334 1.6 1.6 0.00 1.30 1.30 71 1009.1
20260509000952 23 343 1.6 3.2 0.00 1.30 1.30 71 1009.2
20260509000627 24 18 0.0 1.6 0.00 1.30 1.30 70 1009.5
20260509000451 24 16 0.0 0.0 0.00 1.30 1.30 70 1009.2
20260508235946 24 11 0.0 0.0 0.00 1.30 1.30 70 1009.3
20260508235736 24 320 0.0 1.6 0.00 1.30 1.30 70 1009.6
20260508235444 24 304 0.0 0.0 0.00 1.30 1.30 70 1009.4
20260508234940 24 337 0.0 0.0 0.00 1.30 1.30 70 1009.3
20260508234659 24 343 0.0 1.6 0.00 1.30 1.30 69 1009.8
20260508234437 24 30 0.0 0.0 0.00 1.30 1.30 69 1009.3
20260508233935 25 339 3.2 4.8 0.00 1.30 1.30 67 1009.5
20260508233724 25 252 0.0 3.2 0.00 1.30 1.30 67 1009.8
20260508233434 25 240 1.6 1.6 0.00 1.30 1.30 67 1009.5
20260508232930 25 306 0.0 0.0 0.00 1.30 1.30 66 1009.6
20260508232646 25 7 0.0 1.6 0.00 1.30 1.30 66 1009.8
20260508232428 25 309 1.6 1.6 0.00 1.30 1.30 66 1009.4
20260508231925 25 20 1.6 1.6 0.00 1.30 1.30 66 1009.5
20260508231732 25 85 1.6 4.8 0.00 1.30 1.30 67 1009.8
20260508231422 25 5 0.0 0.0 0.00 1.30 1.30 66 1009.6
20260508230919 25 326 0.0 1.6 0.00 1.30 1.30 67 1009.5
20260508230633 25 310 1.6 3.2 0.00 1.30 1.30 67 1009.8
20260508230415 25 231 1.6 3.2 0.00 1.30 1.30 67 1009.4
20260508225912 26 196 0.0 1.6 0.00 1.30 1.30 67 1009.6
20260508225719 25 191 0.0 1.6 0.00 1.30 1.30 67 1009.9
20260508225409 25 186 1.6 1.6 0.00 1.30 1.30 67 1009.6
20260508224907 25 349 0.0 0.0 0.00 1.30 1.30 68 1009.7
20260508224725 26 319 0.0 1.6 0.00 1.30 1.30 67 1010.0
20260508224404 25 332 0.0 0.0 0.00 1.30 1.30 67 1009.7
20260508223902 26 307 0.0 1.6 0.00 1.30 1.30 66 1009.6
20260508223646 26 343 0.0 1.6 0.00 1.30 1.30 66 1009.8
20260508223359 26 348 0.0 0.0 0.00 1.30 1.30 67 1009.5
20260508222856 26 314 1.6 3.2 0.00 1.30 1.30 66 1009.6
20260508222711 26 17 1.6 3.2 0.00 1.30 1.30 66 1009.9
20260508222353 26 344 0.0 0.0 0.00 1.30 1.30 66 1009.6
20260508221850 26 46 0.0 0.0 0.00 1.30 1.30 65 1009.5
20260508221633 26 345 0.0 1.6 0.00 1.30 1.30 66 1009.8
20260508221345 26 305 0.0 0.0 0.00 1.30 1.30 66 1009.6
20260508220842 25 127 0.0 0.0 0.00 1.30 1.30 65 1009.6
20260508220659 25 307 1.6 3.2 0.00 1.30 1.30 66 1009.8
20260508220338 25 299 1.6 3.2 0.00 1.30 1.30 66 1009.5
20260508215835 26 21 1.6 4.8 0.00 1.30 1.30 64 1009.6
20260508215724 26 289 0.0 1.6 0.00 1.30 1.30 65 1009.9
20260508215332 25 346 0.0 1.6 0.00 1.30 1.30 65 1009.6
20260508214829 26 9 0.0 0.0 0.00 1.30 1.30 65 1009.5
20260508214750 25 340 0.0 1.6 0.00 1.30 1.30 65 1009.8
20260508214326 25 1 0.0 0.0 0.00 1.30 1.30 65 1009.2
20260508213822 25 342 0.0 1.6 0.00 1.30 1.30 65 1009.5
20260508213712 25 127 1.6 4.8 0.00 1.30 1.30 65 1009.6
20260508213319 25 30 1.6 4.8 0.00 1.30 1.30 65 1009.4
20260508212816 26 23 1.6 1.6 0.00 1.30 1.30 64 1009.5
20260508212721 26 352 0.0 1.6 0.00 1.30 1.30 64 1009.9
20260508212312 25 311 1.6 1.6 0.00 1.30 1.30 64 1009.4
20260508211808 25 0 0.0 0.0 0.00 1.30 1.30 64 1009.7
20260508211704 26 355 1.6 3.2 0.00 1.30 1.30 63 1010.3
20260508211303 26 15 0.0 0.0 0.00 1.30 1.30 63 1009.9
20260508210802 26 28 0.0 0.0 0.00 1.30 1.30 62 1010.5
20260508210706 26 316 0.0 1.6 0.00 1.30 1.30 63 1010.6
20260508210258 26 16 0.0 1.6 0.00 1.30 1.30 63 1010.3
20260508205755 26 228 1.6 3.2 0.00 1.30 1.30 64 1010.6
20260508205728 25 318 1.6 3.2 0.00 1.30 1.30 64 1010.9
20260508205251 25 328 0.0 0.0 0.00 1.30 1.30 65 1010.7
20260508204748 25 327 0.0 0.0 0.00 1.30 1.30 64 1010.9
20260508204649 25 251 1.6 3.2 0.00 1.30 1.30 64 1011.3
20260508204244 25 240 3.2 3.2 0.00 1.30 1.30 64 1011.0
20260508203740 26 348 1.6 3.2 0.00 1.30 1.30 63 1011.4
20260508203715 26 355 1.6 3.2 0.00 1.30 1.30 63 1011.5
20260508203237 26 343 0.0 1.6 0.00 1.30 1.30 63 1011.2
20260508202732 26 299 0.0 0.0 0.00 1.30 1.30 63 1011.2
20260508202727 26 327 1.6 3.2 0.00 1.30 1.30 63 1011.6
20260508202230 26 347 1.6 1.6 0.00 1.30 1.30 64 1011.1
20260508201727 26 207 1.6 1.6 0.00 1.30 1.30 62 1011.2
20260508201649 26 297 1.6 4.8 0.00 1.30 1.30 62 1011.7
20260508201223 26 344 0.0 0.0 0.00 1.30 1.30 62 1011.3
20260508200720 26 301 0.0 0.0 0.00 1.30 1.30 62 1011.5
20260508200632 26 271 1.6 3.2 0.00 1.30 1.30 61 1011.5
20260508200216 26 342 1.6 3.2 0.00 1.30 1.30 60 1011.2
20260508195739 27 344 0.0 1.6 0.00 1.30 1.30 59 1011.8
20260508195713 27 199 3.2 3.2 0.00 1.30 1.30 58 1011.5
20260508195209 26 340 0.0 0.0 0.00 1.30 1.30 60 1011.6
20260508194706 27 303 0.0 0.0 0.00 1.30 1.30 59 1011.4
20260508194701 27 32 1.6 3.2 0.00 1.30 1.30 58 1011.7
20260508194203 27 9 3.2 3.2 0.00 1.30 1.30 59 1011.3
20260508193727 26 353 0.0 1.6 0.00 1.30 1.30 59 1011.8
20260508193700 27 217 3.2 3.2 0.00 1.30 1.30 58 1011.5
20260508193157 26 340 0.0 0.0 0.00 1.30 1.30 60 1011.3
20260508192653 26 3 1.6 1.6 0.00 1.30 1.30 60 1011.5
20260508192649 26 150 0.0 3.2 0.00 1.30 1.30 59 1011.9
20260508192151 26 336 0.0 0.0 0.00 1.30 1.30 60 1011.5
20260508191714 25 351 0.0 1.6 0.00 1.30 1.30 61 1012.2
20260508191648 25 185 3.2 3.2 0.00 1.30 1.30 62 1011.6
20260508191144 25 351 1.6 1.6 0.00 1.30 1.30 60 1011.8
20260508190642 26 36 0.0 0.0 0.00 1.30 1.30 59 1011.8
20260508190637 26 5 0.0 1.6 0.00 1.30 1.30 59 1012.3
20260508190138 26 41 0.0 1.6 0.00 1.30 1.30 58 1011.8
20260508185703 26 26 1.6 3.2 0.00 1.30 1.30 58 1012.2
20260508185635 26 28 0.0 0.0 0.00 1.30 1.30 59 1011.6
20260508185132 26 312 0.0 0.0 0.00 1.30 1.30 58 1011.9
20260508184728 26 25 0.0 3.2 0.00 1.30 1.30 59 1012.2
20260508184629 26 324 0.0 0.0 0.00 1.30 1.30 61 1011.7
20260508184126 26 273 0.0 0.0 0.00 1.30 1.30 59 1012.0
20260508183651 26 68 0.0 3.2 0.00 1.30 1.30 58 1012.5
20260508183623 26 2 0.0 0.0 0.00 1.30 1.30 59 1012.1
20260508183119 26 1 0.0 0.0 0.00 1.30 1.30 59 1012.1
20260508182716 26 304 0.0 3.2 0.00 1.30 1.30 60 1012.7
20260508182615 26 5 0.0 1.6 0.00 1.30 1.30 60 1012.3
20260508182112 26 336 1.6 3.2 0.00 1.30 1.30 59 1012.5
20260508181639 25 341 0.0 1.6 0.00 1.30 1.30 61 1012.8
20260508181607 25 357 0.0 1.6 0.00 1.30 1.30 59 1012.5
20260508181106 25 328 0.0 0.0 0.00 1.30 1.30 60 1012.8
20260508180704 25 29 1.6 3.2 0.00 1.30 1.30 63 1013.0
20260508180602 25 340 0.0 0.0 0.00 1.30 1.30 63 1012.8
20260508180058 25 3 1.6 1.6 0.00 1.30 1.30 61 1012.6
20260508175647 25 343 0.0 1.6 0.00 1.30 1.30 62 1013.2
20260508175555 25 337 0.0 1.6 0.00 1.30 1.30 61 1012.8
20260508175052 24 333 0.0 0.0 0.00 1.30 1.30 64 1012.9
20260508174815 24 11 1.6 4.8 0.00 1.30 1.30 63 1013.2
20260508174550 24 351 0.0 0.0 0.00 1.30 1.30 65 1013.0
20260508174046 25 0 3.2 3.2 0.00 1.30 1.30 61 1013.0
20260508173838 25 210 1.6 3.2 0.00 1.30 1.30 61 1013.4
20260508173543 24 27 1.6 1.6 0.00 1.30 1.30 62 1013.2
20260508173039 25 326 3.2 3.2 0.00 1.30 1.30 59 1013.2
20260508172640 25 326 0.0 1.6 0.00 1.30 1.30 62 1013.7
20260508172537 25 324 0.0 0.0 0.00 1.30 1.30 61 1013.3
20260508172033 25 343 0.0 0.0 0.00 1.30 1.30 61 1013.5
20260508171705 25 338 0.0 1.6 0.00 1.30 1.30 61 1013.9
20260508171530 24 338 0.0 0.0 0.00 1.30 1.30 62 1013.6
20260508171026 25 344 0.0 0.0 0.00 1.30 1.30 61 1013.8
20260508170627 24 346 0.0 1.6 0.00 1.30 1.30 64 1014.1
20260508170524 24 25 0.0 1.6 0.00 1.30 1.30 63 1013.9
20260508170021 25 345 3.2 3.2 0.00 1.30 1.30 60 1014.0
20260508165652 23 304 1.6 3.2 0.00 1.30 1.30 64 1014.4
20260508165518 23 0 0.0 0.0 0.00 1.30 1.30 65 1014.2
20260508165015 24 318 1.6 1.6 0.00 1.30 1.30 63 1014.1
20260508164718 23 234 0.0 1.6 0.00 1.30 1.30 64 1014.5
20260508164511 23 328 0.0 1.6 0.00 1.30 1.30 65 1014.1
20260508164008 23 261 1.6 3.2 0.00 1.30 1.30 66 1014.3
20260508163804 23 59 0.0 1.6 0.00 1.30 1.30 65 1014.7
20260508163506 23 31 0.0 0.0 0.00 1.30 1.30 65 1014.5
20260508163002 22 359 0.0 1.6 0.00 1.30 1.30 69 1014.6
20260508162745 22 330 0.0 6.4 0.00 1.30 1.30 68 1014.9
20260508162459 22 54 0.0 0.0 0.00 1.30 1.30 68 1014.5
20260508161956 22 353 0.0 1.6 0.00 1.30 1.30 68 1015.0
20260508161453 21 348 0.0 0.0 0.00 1.30 1.30 71 1014.5
20260508160950 21 344 0.0 0.0 0.00 1.30 1.30 72 1014.9
20260508160449 22 201 0.0 1.6 0.00 1.30 1.30 72 1014.9
20260508155944 21 43 1.6 3.2 0.00 1.30 1.30 71 1014.6
20260508155442 20 6 0.0 1.6 0.00 1.30 1.30 75 1014.9
20260508154939 20 355 0.0 0.0 0.00 1.30 1.30 76 1014.8
20260508154437 20 356 0.0 0.0 0.00 1.30 1.30 75 1015.1
20260508153933 20 356 0.0 0.0 0.00 1.30 1.30 76 1015.2
20260508153430 20 330 0.0 0.0 0.00 1.30 1.30 76 1015.2
20260508152926 20 335 0.0 0.0 0.00 1.30 1.30 76 1014.9
20260508152423 20 337 0.0 1.6 0.00 1.30 1.30 75 1014.9
20260508151919 20 348 0.0 0.0 0.00 1.30 1.30 77 1014.9
20260508151416 20 341 0.0 0.0 0.00 1.30 1.30 80 1015.2
20260508151120 19 8 1.6 3.2 0.00 1.30 1.30 81 1015.3
20260508150912 20 335 1.6 3.2 0.00 1.30 1.30 82 1015.1
20260508150409 18 344 0.0 0.0 0.00 1.30 1.30 84 1015.3
20260508150146 18 0.0 0.0 0.00 1.30 1.30 86 1015.5
20260508145905 18 58 0.0 0.0 0.00 1.30 1.30 86 1015.3
20260508145402 18 16 0.0 0.0 0.00 1.30 1.30 90 1015.1
20260508145231 18 0.0 0.0 0.00 1.30 1.30 91 1015.5
20260508144858 18 349 0.0 0.0 0.00 1.30 1.30 91 1015.3
20260508144356 17 356 0.0 0.0 0.00 1.30 1.30 92 1015.4
20260508144257 17 0.0 0.0 0.00 1.30 1.30 92 1015.5
20260508143853 17 343 0.0 0.0 0.00 1.30 1.30 92 1015.2
20260508143351 17 14 0.0 0.0 0.00 1.30 1.30 93 1015.2
20260508143159 17 62 0.0 1.6 0.00 1.30 1.30 95 1015.7
20260508142847 17 62 0.0 1.6 0.00 1.30 1.30 94 1015.5
20260508142344 17 317 0.0 0.0 0.00 1.30 1.30 96 1015.2
20260508142225 17 0.0 0.0 0.00 1.30 1.30 97 1015.6
20260508141840 17 17 0.0 0.0 0.00 1.30 1.30 97 1015.2
20260508141337 16 340 0.0 0.0 0.00 1.30 1.30 97 1015.3
20260508141148 16 0.0 0.0 0.00 1.30 1.30 98 1015.8
20260508140835 16 353 0.0 0.0 0.00 1.30 1.30 98 1015.6
20260508140332 16 329 0.0 0.0 0.00 1.30 1.30 98 1015.5
20260508140150 16 0.0 0.0 0.00 1.30 1.30 98 1015.7
20260508135828 16 346 0.0 0.0 0.00 1.30 1.30 98 1015.4
20260508135324 16 355 0.0 0.0 0.00 1.30 1.30 98 1015.4
20260508135238 16 0.0 0.0 0.00 1.30 1.30 99 1015.8
20260508134820 16 354 0.0 0.0 0.00 1.30 1.30 98 1015.5
20260508134317 16 347 0.0 0.0 0.00 1.30 1.30 99 1015.2
20260508134201 16 0.0 0.0 0.00 1.30 1.30 99 1015.7
20260508133814 16 2 0.0 0.0 0.00 1.30 1.30 99 1015.3
20260508133312 16 346 0.0 0.0 0.00 1.30 1.30 99 1015.4
20260508133227 16 0.0 0.0 0.00 1.30 1.30 99 1015.8
20260508132809 16 346 0.0 0.0 0.00 1.30 1.30 99 1015.4
20260508132307 16 356 0.0 0.0 0.00 1.30 1.30 99 1015.5
20260508132149 16 0.0 0.0 0.03 1.30 1.30 99 1015.5
20260508131802 16 342 0.0 0.0 0.00 1.30 1.30 99 1015.3
20260508131258 16 357 0.0 0.0 0.00 1.30 1.30 99 1015.2
20260508131215 16 0.0 0.0 0.03 1.30 1.30 99 1015.3
20260508130754 16 349 0.0 0.0 0.00 1.30 1.30 99 1015.1
20260508130252 16 21 0.0 1.6 0.00 1.30 1.30 99 1015.2
20260508130138 16 300 0.0 1.6 0.03 1.30 1.30 99 1016.1
20260508125747 15 349 0.0 0.0 0.00 1.30 1.30 99 1016.0
20260508125244 16 343 0.0 0.0 0.00 1.30 1.30 99 1015.7
20260508125223 15 0.0 0.0 0.03 1.30 1.30 99 1016.0
20260508124742 15 359 0.0 0.0 0.00 1.30 1.30 99 1015.8
20260508124239 15 5 0.0 0.0 0.00 1.30 1.30 99 1015.8
20260508124226 15 0.0 0.0 0.03 1.30 1.30 99 1016.4
20260508123737 15 334 0.0 0.0 0.18 1.30 1.30 99 1016.0
20260508123235 15 336 0.0 0.0 0.18 1.30 1.30 99 1015.6
20260508123149 15 0.0 0.0 0.05 1.30 1.30 99 1015.9
20260508122730 15 357 0.0 0.0 0.00 1.27 1.27 99 1015.5
20260508122228 15 341 0.0 0.0 0.00 1.27 1.27 99 1015.7
20260508122215 15 0.0 0.0 0.18 1.27 1.27 99 1016.1
20260508121725 15 331 0.0 0.0 0.00 1.27 1.27 99 1015.8
20260508121224 15 354 0.0 0.0 0.00 1.27 1.27 99 1015.4
20260508121158 15 0.0 0.0 0.36 1.27 1.27 99 1016.0
20260508120721 15 268 0.0 0.0 0.00 1.27 1.27 99 1015.7
20260508120219 15 337 0.0 0.0 0.00 1.27 1.27 99 1015.6
20260508115716 15 353 0.0 0.0 0.00 1.27 1.27 99 1015.7
20260508115213 15 328 0.0 0.0 0.00 1.27 1.27 99 1015.6
20260508114710 15 338 0.0 0.0 0.18 1.27 1.27 99 1015.6
20260508114706 15 0.0 0.0 1.24 1.27 1.27 98 1015.8
20260508114207 15 346 0.0 0.0 0.18 1.27 1.27 98 1015.4
20260508113732 15 0.0 0.0 1.22 1.24 1.24 98 1015.4
20260508113703 15 8 0.0 0.0 0.00 1.24 1.24 98 1015.3
20260508113202 15 356 0.0 0.0 0.71 1.24 1.24 98 1015.1
20260508112657 15 322 0.0 0.0 1.32 1.24 1.24 98 1015.5
20260508112654 15 0.0 0.0 1.22 1.24 1.24 98 1015.7
20260508112154 15 316 0.0 0.0 1.27 1.12 1.12 98 1015.5
20260508111720 15 0.0 0.0 0.99 1.02 1.02 98 1015.5
20260508111651 15 12 0.0 0.0 0.89 1.04 1.04 98 1014.9
20260508111149 15 348 0.0 0.0 0.71 0.91 0.91 98 1015.0
20260508110646 16 7 0.0 0.0 2.11 0.86 0.86 98 1015.4
20260508110643 16 0.0 0.0 0.84 0.86 0.86 98 1015.9
20260508110142 16 351 0.0 0.0 3.84 0.79 0.79 98 1015.8
20260508105708 16 0.0 0.0 0.41 0.43 0.43 97 1016.2
20260508105637 16 345 0.0 0.0 2.87 0.53 0.53 97 1015.6
20260508105135 16 327 0.0 0.0 0.71 0.15 0.15 97 1016.1
20260508104754 16 0.0 0.0 0.00 0.03 0.03 96 1016.0
20260508104632 16 351 0.0 0.0 0.00 0.03 0.03 97 1015.7
20260508104129 16 348 0.0 0.0 0.00 0.03 0.03 96 1015.8
20260508103657 16 341 0.0 1.6 0.00 0.03 0.03 96 1016.2
20260508103626 16 346 0.0 0.0 0.00 0.03 0.03 96 1016.0
20260508103124 16 347 0.0 0.0 0.00 0.03 0.03 96 1015.3
20260508102723 16 19 0.0 1.6 0.00 0.03 0.03 95 1015.3
20260508102621 16 342 0.0 0.0 0.00 0.03 0.03 95 1015.2
20260508102119 16 351 0.0 0.0 0.00 0.03 0.03 95 1015.6
20260508101705 16 219 0.0 3.2 0.00 0.03 0.03 96 1014.9
20260508101616 16 287 1.6 1.6 0.00 0.03 0.03 96 1014.9
20260508101113 15 344 0.0 0.0 0.00 0.03 0.03 96 1014.2
20260508100711 15 0.0 0.0 0.00 0.03 0.03 96 1014.7
20260508100610 15 338 0.0 0.0 0.00 0.03 0.03 96 1014.4
20260508100108 16 327 0.0 0.0 0.00 0.03 0.03 96 1014.2
20260508095634 15 0.0 0.0 0.00 0.03 0.03 96 1014.7
20260508095605 15 320 0.0 0.0 0.00 0.03 0.03 96 1014.5
20260508095101 15 352 0.0 0.0 0.00 0.03 0.03 96 1014.4
20260508094720 16 0.0 0.0 0.00 0.03 0.03 96 1014.7
20260508094559 16 338 0.0 0.0 0.00 0.03 0.03 96 1014.5
20260508094055 16 351 0.0 0.0 0.00 0.03 0.03 96 1014.3
20260508093725 16 0.0 0.0 0.00 0.03 0.03 96 1014.8
20260508093553 16 359 0.0 0.0 0.00 0.03 0.03 96 1014.5
20260508093050 15 343 0.0 0.0 0.00 0.03 0.03 96 1014.5
20260508092648 15 0.0 0.0 0.00 0.03 0.03 96 1014.8
20260508092547 16 345 0.0 0.0 0.00 0.03 0.03 96 1014.6
20260508092046 15 339 0.0 0.0 0.00 0.03 0.03 96 1014.9
20260508091732 16 0.0 0.0 0.00 0.03 0.03 96 1014.8
20260508091543 16 350 0.0 0.0 0.00 0.03 0.03 96 1014.6
20260508091040 16 346 0.0 0.0 0.00 0.03 0.03 96 1014.5
20260508090635 16 0.0 0.0 0.00 0.03 0.03 95 1015.0
20260508090538 16 355 0.0 0.0 0.00 0.03 0.03 96 1014.6
20260508090034 16 1 0.0 0.0 0.00 0.03 0.03 95 1014.8
20260508085701 16 0.0 0.0 0.03 0.03 0.03 95 1015.3
20260508085531 16 350 0.0 0.0 0.00 0.03 0.03 95 1015.1
20260508085028 16 359 0.0 0.0 0.00 0.03 0.03 95 1014.9
20260508084726 16 0.0 0.0 0.03 0.03 0.03 94 1015.4
20260508084524 15 348 0.0 0.0 0.00 0.03 0.03 94 1015.1
20260508084021 16 308 0.0 1.6 0.00 0.03 0.03 94 1015.2
20260508083812 16 0.0 0.0 0.03 0.03 0.03 94 1015.1
20260508083518 16 339 0.0 0.0 0.00 0.03 0.03 94 1014.9
20260508083015 16 359 0.0 0.0 0.00 0.03 0.03 94 1014.6
20260508082715 15 10 0.0 1.6 0.03 0.03 0.03 93 1015.2
20260508082511 16 10 0.0 1.6 0.00 0.03 0.03 93 1014.8
20260508082008 15 324 0.0 0.0 0.00 0.03 0.03 92 1015.4
20260508081637 16 0.0 0.0 0.03 0.03 0.03 92 1015.4
20260508081506 16 338 0.0 0.0 0.00 0.03 0.03 92 1014.9
20260508081002 16 346 0.0 0.0 0.00 0.03 0.03 92 1015.5
20260508080703 17 0.0 0.0 0.03 0.03 0.03 88 1016.1
20260508080500 16 21 0.0 0.0 0.18 0.03 0.03 90 1015.4
20260508075956 17 348 0.0 1.6 0.18 0.03 0.03 85 1016.4
20260508075625 17 0.0 0.0 0.00 0.00 0.00 78 1016.7
20260508075454 17 343 0.0 0.0 0.00 0.00 0.00 79 1016.5
20260508074952 17 351 0.0 0.0 0.00 0.00 0.00 77 1016.4
20260508074651 17 307 0.0 1.6 0.00 0.00 0.00 77 1016.7
20260508074449 17 343 0.0 0.0 0.00 0.00 0.00 77 1016.4
20260508073945 17 311 0.0 0.0 0.00 0.00 0.00 78 1016.0
20260508073717 17 0.0 0.0 0.00 0.00 0.00 78 1016.2
20260508073443 17 348 0.0 0.0 0.00 0.00 0.00 78 1015.7
20260508072939 17 344 0.0 0.0 0.00 0.00 0.00 79 1015.8
20260508072743 17 0.0 0.0 0.00 0.00 0.00 80 1016.0
20260508072435 17 343 0.0 0.0 0.00 0.00 0.00 80 1015.7
20260508071933 16 352 0.0 0.0 0.00 0.00 0.00 80 1015.5
20260508071705 16 0.0 0.0 0.00 0.00 0.00 80 1016.2
20260508071431 16 346 0.0 0.0 0.00 0.00 0.00 80 1015.8
20260508070923 16 343 0.0 0.0 0.00 0.00 0.00 80 1016.2
20260508070628 16 0.0 0.0 0.00 0.00 0.00 81 1016.3
20260508070421 16 342 0.0 0.0 0.00 0.00 0.00 81 1015.9
20260508065918 16 349 0.0 0.0 0.00 0.00 0.00 81 1015.6
20260508065654 16 0.0 0.0 0.00 0.00 0.00 80 1016.3
20260508065416 16 358 0.0 0.0 0.00 0.00 0.00 80 1016.1
20260508064914 16 351 0.0 0.0 0.00 0.00 0.00 80 1016.2
20260508064617 16 0.0 0.0 0.00 0.00 0.00 79 1016.6
20260508064411 16 359 0.0 0.0 0.00 0.00 0.00 79 1016.2
20260508063909 16 344 0.0 0.0 0.00 0.00 0.00 78 1016.5
20260508063806 16 0.0 0.0 0.00 0.00 0.00 78 1017.0
20260508063407 16 342 0.0 0.0 0.00 0.00 0.00 78 1016.7
20260508062903 16 343 0.0 0.0 0.00 0.00 0.00 79 1016.6
20260508062708 16 0.0 0.0 0.00 0.00 0.00 78 1016.9
20260508062401 16 348 0.0 0.0 0.00 0.00 0.00 78 1016.6
20260508061858 16 348 0.0 0.0 0.00 0.00 0.00 78 1016.9
20260508061733 16 0.0 0.0 0.00 0.00 0.00 78 1016.9
20260508061356 16 345 0.0 0.0 0.00 0.00 0.00 78 1016.7
20260508060851 16 344 0.0 0.0 0.00 0.00 0.00 78 1016.4
20260508060656 16 0.0 0.0 0.00 0.00 0.00 78 1016.6
20260508060349 16 357 0.0 0.0 0.00 0.00 0.00 78 1016.4
20260508055844 16 353 0.0 0.0 0.00 0.00 0.00 78 1016.4
20260508055618 16 0.0 0.0 0.00 0.00 0.00 79 1016.7
20260508055342 16 345 0.0 0.0 0.00 0.00 0.00 78 1016.3
20260508054838 16 346 0.0 0.0 0.00 0.00 0.00 79 1016.2
20260508054644 16 0.0 0.0 0.00 0.00 0.00 79 1016.6
20260508054336 16 350 0.0 0.0 0.00 0.00 0.00 79 1016.3
20260508053832 16 352 0.0 0.0 0.00 0.00 0.00 79 1016.5
20260508053705 16 0.0 0.0 0.00 0.00 0.00 78 1016.8
20260508053330 16 359 0.0 0.0 0.00 0.00 0.00 78 1016.4
20260508052827 17 359 0.0 0.0 0.00 0.00 0.00 78 1016.6
20260508052731 17 0.0 0.0 0.00 0.00 0.00 77 1017.0
20260508052325 17 349 0.0 0.0 0.00 0.00 0.00 77 1016.6
20260508051821 17 347 0.0 0.0 0.00 0.00 0.00 77 1016.5
20260508051654 17 0.0 0.0 0.00 0.00 0.00 76 1017.0
20260508051316 17 349 0.0 0.0 0.00 0.00 0.00 76 1016.8
20260508050813 17 350 0.0 0.0 0.00 0.00 0.00 76 1016.5
20260508050720 17 0.0 0.0 0.00 0.00 0.00 76 1016.7
20260508050310 17 347 0.0 0.0 0.00 0.00 0.00 76 1016.3
20260508045806 17 345 0.0 0.0 0.00 0.00 0.00 75 1016.3
20260508045642 17 0.0 0.0 0.00 0.00 0.00 75 1016.8
20260508045306 17 346 0.0 0.0 0.00 0.00 0.00 75 1016.5
20260508044801 17 356 0.0 0.0 0.00 0.00 0.00 74 1016.4
20260508044605 17 0.0 0.0 0.00 0.00 0.00 74 1016.9
20260508044257 17 345 0.0 0.0 0.00 0.00 0.00 74 1016.6